Wetterdaten Sommer 2015

Datum T max T min Regen
01.06.2015 19.6 °C 13 °C 0.8 mm
02.06.2015 27.2 °C 10.4 °C 0 mm
03.06.2015 25.9 °C 12.8 °C 0 mm
04.06.2015 28.8 °C 11.7 °C 0 mm
05.06.2015 32.3 °C 13.6 °C 0 mm
06.06.2015 30.4 °C 18.3 °C 3 mm
07.06.2015 28.1 °C 16.6 °C 0 mm
08.06.2015 20.2 °C 13.2 °C 21.6 mm
09.06.2015 15.2 °C 12.7 °C 0 mm
10.06.2015 18.8 °C 12.4 °C 0 mm
11.06.2015 25.9 °C 13.8 °C 0.2 mm
12.06.2015 27 °C 13.6 °C 2.4 mm
13.06.2015 24.1 °C 15.4 °C 0.2 mm
14.06.2015 26.9 °C 13.6 °C 0 mm
15.06.2015 22.7 °C 15.7 °C 0 mm
16.06.2015 20.9 °C 13.2 °C 0 mm
17.06.2015 21.8 °C 9.6 °C 0 mm
18.06.2015 17.1 °C 13.8 °C 5.2 mm
19.06.2015 16.3 °C 10.4 °C 0 mm
20.06.2015 14.9 °C 10.8 °C 0.4 mm
21.06.2015 20.9 °C 11.3 °C 2.8 mm
22.06.2015 16.8 °C 12.4 °C 5.4 mm
23.06.2015 16.6 °C 9.3 °C 7.2 mm
24.06.2015 21.3 °C 8.7 °C 0 mm
25.06.2015 24.7 °C 9.7 °C 0 mm
26.06.2015 27.5 °C 11.2 °C 0 mm
27.06.2015 23.8 °C 15.8 °C 1.8 mm
28.06.2015 24.5 °C 13.3 °C 0 mm
29.06.2015 28.6 °C 14.3 °C 0 mm
30.06.2015 30.3 °C 14.7 °C 0 mm
01.07.2015 32.6 °C 14.2 °C 0 mm
02.07.2015 34.8 °C 18.1 °C 0 mm
03.07.2015 33.5 °C 21.2 °C 0 mm
04.07.2015 36.8 °C 19.9 °C 0 mm
05.07.2015 37.6 °C 20.9 °C 0.6 mm
06.07.2015 30.3 °C 19.3 °C 0.2 mm
07.07.2015 35.6 °C 16.5 °C 1.8 mm
08.07.2015 22.7 °C 17.6 °C 0 mm
09.07.2015 20.9 °C 14.2 °C 0.6 mm
10.07.2015 25.1 °C 8.9 °C 0 mm
11.07.2015 31.2 °C 11.6 °C 0 mm
12.07.2015 26.6 °C 14.1 °C 0 mm
13.07.2015 22.4 °C 17.1 °C 0 mm
14.07.2015 27.6 °C 17.8 °C 0 mm
15.07.2015 30.6 °C 17.1 °C 0 mm
16.07.2015 33.4 °C 15.9 °C 0 mm
17.07.2015 33.5 °C 17.4 °C 0 mm
18.07.2015 28.3 °C 18.9 °C 2 mm
19.07.2015 28.6 °C 19.1 °C 1.4 mm
20.07.2015 29 °C 19.7 °C 0 mm
21.07.2015 32.7 °C 19.4 °C 0 mm
22.07.2015 33.9 °C 18 °C 3 mm
23.07.2015 25.6 °C 18.6 °C 0.4 mm
24.07.2015 31.4 °C 17.2 °C 0 mm
25.07.2015 24.9 °C 13.9 °C 3.6 mm
26.07.2015 22.8 °C 9.2 °C 0.4 mm
27.07.2015 22.5 °C 16.2 °C 0 mm
28.07.2015 21.4 °C 15.9 °C 0.2 mm
29.07.2015 18.7 °C 13 °C 1.8 mm
30.07.2015 22.3 °C 11.7 °C 0 mm
31.07.2015 24.6 °C 7.7 °C 0 mm
01.08.2015 23.9 °C 13.2 °C 0 mm
02.08.2015 29.6 °C 12.7 °C 0 mm
03.08.2015 32.6 °C 13.7 °C 0 mm
04.08.2015 27.5 °C 18.3 °C 0 mm
05.08.2015 30.4 °C 14.5 °C 0 mm
06.08.2015 36.1 °C 17.3 °C 0 mm
07.08.2015 37.2 °C 19.2 °C 0 mm
08.08.2015 33.2 °C 22.7 °C 0.4 mm
09.08.2015 31.9 °C 20.7 °C 18.2 mm
10.08.2015 27.4 °C 19.6 °C 0 mm
11.08.2015 29.7 °C 18.4 °C 0 mm
12.08.2015 32.4 °C 18.7 °C 0 mm
13.08.2015 34.2 °C 18.8 °C 0 mm
14.08.2015 26.8 °C 17 °C 21.6 mm
15.08.2015 23 °C 16.6 °C 0.2 mm
16.08.2015 17.6 °C 14.9 °C 8.4 mm
17.08.2015 17.9 °C 14.1 °C 0 mm
18.08.2015 21.1 °C 9.9 °C 0 mm
19.08.2015 19.9 °C 12.8 °C 0.2 mm
20.08.2015 21.2 °C 14.3 °C 0 mm
21.08.2015 24.1 °C 11.2 °C 0 mm
22.08.2015 25.6 °C 11.9 °C 0 mm
23.08.2015 25.8 °C 10.8 °C 5.8 mm
24.08.2015 22.9 °C 14.3 °C 22.8 mm
25.08.2015 21.5 °C 12.3 °C 0 mm
26.08.2015 26.8 °C 11.1 °C 0 mm
27.08.2015 31.5 °C 14.5 °C 0 mm
28.08.2015 24.6 °C 19.9 °C 0 mm
29.08.2015 30.8 °C 16.8 °C 0 mm
30.08.2015 31.9 °C 17.7 °C 0 mm
31.08.2015 32.3 °C 17.6 °C 0 mm
 Hinweis zur Datenqualität
∅ Temperatur

20.5 °C

Abweichung vom Mittel

+1.8 °C

Niederschlag

144.6 mm

Abweichung vom Mittel

65 %

37.6 °C

Lufttemperatur
05.07.2015

1026 hPa

Luftdruck
04.06.2015

30.6 km/h

Windböen
25.07.2015

144.6 mm

Niederschlag
 

7.7 °C

Lufttemperatur
31.07.2015

7.8 °C

Bodentemperatur 5cm
31.05.2015

1005 hPa

Luftdruck
24.07.2015
 Hinweis zur Datenqualität